When you browse on this site, cookies collect data to enhance your experience and personalize the content and advertising you see.
Visit our Privacy Policy to learn more. By continuing to use the site, you agree to this use of cookies and data.
  • Em Portugal
  • Lista de países
  • Para 7 dias
  • Temperatura da água
  • Mapas de satélite
  • Mapa do tempo
  • Widgets de tempo
  • user-avatar
    Iniciar Sessão

    Previsão horária em Kulikovo

    Hoje, 20 Julho, Sábado

    Tempo Temperatura Precipitação Vento Pressão Humidade
    00:00 +18°C° 0.8 mm 1 m/s 742 mmHg 90%
    01:00 +16°C° 0.8 mm 1 m/s 742 mmHg 93%
    02:00 +16°C° 0.2 mm 1 m/s 742 mmHg 94%
    03:00 +16°C° 0.2 mm 1 m/s 742 mmHg 95%
    04:00 +14°C° 0.2 mm 0 m/s 742 mmHg 96%
    05:00 +16°C° 0 mm 1 m/s 742 mmHg 94%
    06:00 +18°C° 0 mm 1 m/s 743 mmHg 93%
    07:00 +19°C° 0 mm 1 m/s 743 mmHg 91%
    08:00 +21°C° 0 mm 1 m/s 743 mmHg 81%
    09:00 +23°C° 0 mm 2 m/s 743 mmHg 72%
    10:00 +24°C° 0 mm 2 m/s 743 mmHg 62%
    11:00 +25°C° 0 mm 2 m/s 743 mmHg 59%
    12:00 +26°C° 0 mm 2 m/s 744 mmHg 56%
    13:00 +27°C° 0 mm 3 m/s 744 mmHg 54%
    14:00 +28°C° 0 mm 2 m/s 744 mmHg 53%
    15:00 +28°C° 0 mm 2 m/s 744 mmHg 52%
    16:00 +28°C° 0 mm 2 m/s 744 mmHg 51%
    17:00 +27°C° 0 mm 2 m/s 744 mmHg 57%
    18:00 +26°C° 0 mm 2 m/s 744 mmHg 64%
    19:00 +25°C° 0 mm 1 m/s 744 mmHg 71%
    20:00 +23°C° 0 mm 1 m/s 744 mmHg 77%
    21:00 +21°C° 0 mm 1 m/s 744 mmHg 83%
    22:00 +20°C° 0 mm 1 m/s 744 mmHg 90%
    23:00 +19°C° 0 mm 1 m/s 744 mmHg 91%

    Amanhã, 21 Julho, Domingo

    Tempo Temperatura Precipitação Vento Pressão Humidade
    00:00 +18°C° 0 mm 1 m/s 744 mmHg 93%
    01:00 +18°C° 0 mm 1 m/s 744 mmHg 94%
    02:00 +16°C° 0 mm 1 m/s 744 mmHg 95%
    03:00 +16°C° 0 mm 1 m/s 744 mmHg 95%
    04:00 +15°C° 0 mm 1 m/s 744 mmHg 96%
    05:00 +18°C° 0 mm 1 m/s 744 mmHg 91%
    06:00 +18°C° 0 mm 2 m/s 744 mmHg 87%
    07:00 +19°C° 0 mm 2 m/s 743 mmHg 83%
    08:00 +20°C° 0 mm 2 m/s 743 mmHg 76%
    09:00 +23°C° 0 mm 2 m/s 743 mmHg 69%
    10:00 +24°C° 0 mm 3 m/s 743 mmHg 63%
    11:00 +25°C° 0 mm 3 m/s 743 mmHg 59%
    12:00 +26°C° 0 mm 3 m/s 743 mmHg 55%
    13:00 +26°C° 0 mm 3 m/s 743 mmHg 52%
    14:00 +26°C° 0.1 mm 3 m/s 743 mmHg 54%
    15:00 +26°C° 0.1 mm 3 m/s 743 mmHg 56%
    16:00 +26°C° 0.1 mm 3 m/s 743 mmHg 59%
    17:00 +25°C° 0.3 mm 2 m/s 743 mmHg 66%
    18:00 +23°C° 0.3 mm 2 m/s 742 mmHg 74%
    19:00 +21°C° 0.3 mm 2 m/s 742 mmHg 82%
    20:00 +20°C° 0 mm 2 m/s 742 mmHg 85%
    21:00 +18°C° 0 mm 2 m/s 742 mmHg 89%
    22:00 +16°C° 0 mm 2 m/s 742 mmHg 93%
    23:00 +16°C° 0 mm 2 m/s 742 mmHg 94%

    Depois de amanhã, 22 Julho, Segunda-feira

    Tempo Temperatura Precipitação Vento Pressão Humidade
    00:00 +15°C° 0 mm 1 m/s 742 mmHg 96%
    01:00 +15°C° 0 mm 1 m/s 742 mmHg 97%
    02:00 +14°C° 0 mm 1 m/s 742 mmHg 97%
    03:00 +14°C° 0 mm 1 m/s 742 mmHg 97%
    04:00 +14°C° 0 mm 1 m/s 742 mmHg 97%
    05:00 +15°C° 0 mm 1 m/s 742 mmHg 95%
    06:00 +16°C° 0 mm 2 m/s 742 mmHg 92%
    07:00 +17°C° 0 mm 2 m/s 742 mmHg 90%
    08:00 +19°C° 0 mm 2 m/s 741 mmHg 80%
    09:00 +21°C° 0 mm 2 m/s 741 mmHg 71%
    10:00 +23°C° 0 mm 2 m/s 741 mmHg 61%
    11:00 +24°C° 0.3 mm 2 m/s 741 mmHg 62%
    12:00 +24°C° 0.3 mm 3 m/s 741 mmHg 63%
    13:00 +24°C° 0.3 mm 3 m/s 741 mmHg 64%
    14:00 +24°C° 0.7 mm 2 m/s 740 mmHg 67%
    15:00 +24°C° 0.7 mm 2 m/s 740 mmHg 69%
    16:00 +24°C° 0.7 mm 2 m/s 740 mmHg 71%
    17:00 +23°C° 0.4 mm 1 m/s 740 mmHg 76%
    18:00 +22°C° 0.4 mm 1 m/s 740 mmHg 81%
    19:00 +22°C° 0.4 mm 1 m/s 741 mmHg 87%
    20:00 +20°C° 0.2 mm 1 m/s 741 mmHg 90%
    21:00 +19°C° 0.2 mm 1 m/s 741 mmHg 93%
    22:00 +16°C° 0.2 mm 1 m/s 740 mmHg 96%
    23:00 +15°C° 0 mm 1 m/s 740 mmHg 96%

    23 Julho, Terça-feira

    Tempo Temperatura Precipitação Vento Pressão Humidade
    00:00 +15°C° 0 mm 1 m/s 741 mmHg 97%
    01:00 +14°C° 0 mm 1 m/s 741 mmHg 98%
    02:00 +14°C° 0 mm 1 m/s 741 mmHg 98%
    03:00 +14°C° 0 mm 1 m/s 741 mmHg 98%
    04:00 +13°C° 0 mm 1 m/s 741 mmHg 98%
    05:00 +14°C° 0 mm 1 m/s 741 mmHg 97%
    06:00 +15°C° 0 mm 1 m/s 741 mmHg 96%
    07:00 +16°C° 0 mm 2 m/s 742 mmHg 95%
    08:00 +17°C° 0 mm 2 m/s 742 mmHg 88%
    09:00 +19°C° 0 mm 2 m/s 742 mmHg 81%
    10:00 +20°C° 0 mm 2 m/s 742 mmHg 74%
    11:00 +21°C° 0.4 mm 2 m/s 742 mmHg 74%
    12:00 +21°C° 0.4 mm 2 m/s 742 mmHg 75%
    13:00 +23°C° 0.4 mm 2 m/s 742 mmHg 76%
    14:00 +21°C° 0.8 mm 2 m/s 742 mmHg 79%
    15:00 +21°C° 0.8 mm 2 m/s 743 mmHg 83%
    16:00 +21°C° 0.8 mm 2 m/s 743 mmHg 86%
    17:00 +20°C° 0.4 mm 2 m/s 743 mmHg 88%
    18:00 +20°C° 0.4 mm 2 m/s 743 mmHg 89%
    19:00 +20°C° 0.4 mm 2 m/s 743 mmHg 91%
    20:00 +19°C° 0 mm 2 m/s 743 mmHg 92%
    21:00 +18°C° 0 mm 2 m/s 743 mmHg 94%
    22:00 +16°C° 0 mm 2 m/s 743 mmHg 96%
    23:00 +16°C° 0 mm 2 m/s 743 mmHg 96%

    24 Julho, Quarta-feira

    Tempo Temperatura Precipitação Vento Pressão Humidade
    00:00 +16°C° 0 mm 2 m/s 744 mmHg 96%
    01:00 +16°C° 0 mm 2 m/s 744 mmHg 96%
    02:00 +15°C° 0 mm 1 m/s 744 mmHg 96%
    03:00 +15°C° 0 mm 1 m/s 744 mmHg 96%
    04:00 +15°C° 0 mm 1 m/s 744 mmHg 96%
    05:00 +18°C° 0 mm 1 m/s 745 mmHg 93%
    06:00 +19°C° 0 mm 1 m/s 745 mmHg 90%
    07:00 +20°C° 0 mm 1 m/s 745 mmHg 88%
    08:00 +22°C° 0 mm 1 m/s 745 mmHg 77%
    09:00 +24°C° 0 mm 1 m/s 746 mmHg 67%
    10:00 +26°C° 0 mm 1 m/s 746 mmHg 57%
    11:00 +27°C° 0 mm 1 m/s 746 mmHg 52%
    12:00 +28°C° 0 mm 1 m/s 746 mmHg 47%
    13:00 +29°C° 0 mm 1 m/s 747 mmHg 42%
    14:00 +29°C° 0 mm 1 m/s 747 mmHg 44%
    15:00 +29°C° 0 mm 1 m/s 747 mmHg 45%
    16:00 +28°C° 0 mm 1 m/s 747 mmHg 47%
    17:00 +27°C° 0.1 mm 1 m/s 747 mmHg 56%
    18:00 +25°C° 0.1 mm 2 m/s 747 mmHg 65%
    19:00 +23°C° 0.1 mm 2 m/s 747 mmHg 74%
    20:00 +20°C° 0 mm 2 m/s 747 mmHg 77%
    21:00 +20°C° 0 mm 1 m/s 747 mmHg 79%
    22:00 +16°C° 0 mm 0 m/s 748 mmHg 82%
    23:00 +16°C° 0 mm 0 m/s 748 mmHg 83%

    25 Julho, Quinta-feira

    Tempo Temperatura Precipitação Vento Pressão Humidade
    00:00 +16°C° 0 mm 0 m/s 748 mmHg 85%
    01:00 +15°C° 0 mm 0 m/s 748 mmHg 86%
    02:00 +15°C° 0 mm 0 m/s 748 mmHg 88%
    03:00 +15°C° 0 mm 0 m/s 748 mmHg 89%
    04:00 +14°C° 0 mm 0 m/s 748 mmHg 90%
    05:00 +16°C° 0 mm 0 m/s 749 mmHg 85%
    06:00 +18°C° 0 mm 0 m/s 749 mmHg 80%
    07:00 +19°C° 0 mm 0 m/s 749 mmHg 75%
    08:00 +21°C° 0 mm 0 m/s 749 mmHg 68%
    09:00 +24°C° 0 mm 0 m/s 749 mmHg 61%
    10:00 +26°C° 0 mm 0 m/s 749 mmHg 54%
    11:00 +26°C° 0 mm 0 m/s 749 mmHg 51%
    12:00 +27°C° 0 mm 0 m/s 749 mmHg 48%
    13:00 +28°C° 0 mm 0 m/s 749 mmHg 45%
    14:00 +29°C° 0 mm 1 m/s 749 mmHg 46%
    15:00 +29°C° 0 mm 1 m/s 749 mmHg 46%
    16:00 +29°C° 0 mm 1 m/s 748 mmHg 47%
    17:00 +26°C° 0 mm 0 m/s 748 mmHg 54%
    18:00 +24°C° 0 mm 0 m/s 748 mmHg 62%
    19:00 +23°C° 0 mm 0 m/s 748 mmHg 69%
    20:00 +21°C° 0 mm 0 m/s 748 mmHg 74%
    21:00 +20°C° 0 mm 0 m/s 748 mmHg 78%
    22:00 +18°C° 0 mm 0 m/s 748 mmHg 83%
    23:00 +17°C° 0 mm 0 m/s 748 mmHg 84%
    Mostrar mais